Location: Huntsville
(41.2590°N, 111.7678°W)
Time: 11:08:02
(UTC+00:00)

Envisat - Pass Details

Date: 04 December 2021
Orbit: 764 x 766 km, 98.2° (Epoch: 28 January)

Event Time Altitude Azimuth Distance (km) Brightness Sun altitude
Rises 12:13:36 0° 16° (NNE) 3,242 6.3 -26.2°
Reaches altitude 10° 12:15:57 10° 19° (NNE) 2,311 5.6 -25.8°
Maximum altitude 12:21:00 63° 101° (E) 853 3.4 -24.8°
Drops below altitude 10° 12:26:01 10° 182° (S) 2,294 5.5 -23.9°
Sets 12:28:19 0° 186° (S) 3,215 6.3 -23.5°
